OK1FCB-1 Weather Reports


Display with metric or nautical units.
time (UTC)temp
F
wind
direction
speed
MPH
gust
MPH
rain 1hr
in
rain 24hr
in
rain mn
in
humidity
%
barometer
mb
20260507194309 52 0.0 0.0 0.00 0.00 0.00 69 1018.5
20260507182817 56 0.0 0.0 0.00 0.00 0.00 61 1017.5
20260507175822 59 0.0 0.0 0.00 0.00 0.00 57 1017.3
20260507172836 64 0.0 0.0 0.00 0.00 0.00 49 1016.7
20260507155906 76 0.0 0.0 0.00 0.00 0.00 39 1016.1
20260507154410 77 0.0 0.0 0.00 0.00 0.00 36 1016.1
20260507154404 77 0.0 0.0 0.00 0.00 0.00 36 1016.1
20260507152911 76 0.0 0.0 0.00 0.00 0.00 40 1016.1
20260507145913 76 0.0 0.0 0.00 0.00 0.00 40 1016.0
20260507135917 73 0.0 0.0 0.00 0.00 0.00 42 1016.1
20260507132919 70 0.0 0.0 0.00 0.00 0.00 46 1016.0
20260507131419 72 0.0 0.0 0.00 0.00 0.00 44 1016.0
20260507125926 71 0.0 0.0 0.00 0.00 0.00 47 1016.0
20260507125921 71 0.0 0.0 0.00 0.00 0.00 47 1016.0
20260507124425 72 0.0 0.0 0.00 0.00 0.00 43 1015.8
20260507121428 70 0.0 0.0 0.00 0.00 0.00 50 1015.7
20260507114433 69 0.0 0.0 0.00 0.00 0.00 53 1015.7
20260507095951 69 0.0 0.0 0.00 0.00 0.00 53 1015.2
20260507085956 64 0.0 0.0 0.00 0.00 0.00 62 1015.0
20260507081506 62 0.0 0.0 0.00 0.00 0.00 67 1014.6
20260507074503 60 0.0 0.0 0.00 0.00 0.00 68 1014.7
20260507073012 60 0.0 0.0 0.00 0.00 0.00 70 1014.6
20260507073005 60 0.0 0.0 0.00 0.00 0.00 70 1014.6
20260507071513 60 0.0 0.0 0.00 0.00 0.00 70 1014.5
20260507071507 60 0.0 0.0 0.00 0.00 0.00 70 1014.5
20260507070017 62 0.0 0.0 0.00 0.00 0.00 66 1014.2
20260507070013 62 0.0 0.0 0.00 0.00 0.00 66 1014.2
20260507064519 62 0.0 0.0 0.00 0.00 0.00 66 1014.2
20260507064513 62 0.0 0.0 0.00 0.00 0.00 66 1014.2
20260507050023 54 0.0 0.0 0.00 0.00 0.00 81 1013.0
20260507044524 54 0.0 0.0 0.00 0.00 0.00 82 1012.9
20260507043032 54 0.0 0.0 0.00 0.00 0.00 82 1012.7
20260507043027 54 0.0 0.0 0.00 0.00 0.00 82 1012.7
20260507041529 54 0.0 0.0 0.00 0.00 0.00 82 1012.5
20260507040037 53 0.0 0.0 0.00 0.00 0.00 82 1012.4
20260507040031 53 0.0 0.0 0.00 0.00 0.00 82 1012.4
20260507033036 53 0.0 0.0 0.00 0.00 0.00 82 1011.9
20260507031538 53 0.0 0.0 0.00 0.00 0.00 82 1012.0
20260507030039 53 0.0 0.0 0.00 0.00 0.00 82 1011.9
20260507023044 53 0.0 0.0 0.00 0.00 0.00 82 1012.1
20260507021551 52 0.0 0.0 0.00 0.00 0.00 82 1012.0
20260507021545 52 0.0 0.0 0.00 0.00 0.00 82 1012.0
20260507014555 52 0.0 0.0 0.00 0.00 0.00 82 1011.6
20260507014550 52 0.0 0.0 0.00 0.00 0.00 82 1011.6
20260507013058 53 0.0 0.0 0.00 0.00 0.00 82 1011.6
20260507013052 53 0.0 0.0 0.00 0.00 0.00 82 1011.6
20260507011600 53 0.0 0.0 0.00 0.00 0.00 82 1011.3
20260507011555 53 0.0 0.0 0.00 0.00 0.00 82 1011.3
20260507004605 53 0.0 0.0 0.00 0.00 0.00 81 1010.8
20260507004600 53 0.0 0.0 0.00 0.00 0.00 81 1010.8
20260507001610 53 0.0 0.0 0.00 0.00 0.00 81 1010.4
20260507001604 53 0.0 0.0 0.00 0.00 0.00 81 1010.4
20260507000106 54 0.0 0.0 0.00 0.00 0.00 81 1010.5
20260506234614 54 0.0 0.0 0.00 0.00 0.00 81 1010.6
20260506234608 54 0.0 0.0 0.00 0.00 0.00 81 1010.6
20260506221622 55 0.0 0.0 0.00 0.00 0.00 81 1011.3
20260506211631 54 0.0 0.0 0.00 0.00 0.00 80 1009.8